Year,Month,Day,Hour,Minute,Value (Times are PST for temperature in C)
2016,08,15,00,00,18.20
2016,08,15,00,01,18.30
2016,08,15,00,02,18.30
2016,08,15,00,03,18.40
2016,08,15,00,04,18.50
2016,08,15,00,05,18.60
2016,08,15,00,06,18.70
2016,08,15,00,07,18.80
2016,08,15,00,08,18.90
2016,08,15,00,09,18.90
2016,08,15,00,10,19.00
2016,08,15,00,11,19.10
2016,08,15,00,12,19.10
2016,08,15,00,13,19.20
2016,08,15,00,14,19.20
2016,08,15,00,15,19.30
2016,08,15,00,16,19.30
2016,08,15,00,17,19.40
2016,08,15,00,18,19.40
2016,08,15,00,19,19.40
2016,08,15,00,20,19.40
2016,08,15,00,21,19.50
2016,08,15,00,22,19.50
2016,08,15,00,23,19.60
2016,08,15,00,24,19.60
2016,08,15,00,25,19.60
2016,08,15,00,26,19.70
2016,08,15,00,27,19.70
2016,08,15,00,28,19.70
2016,08,15,00,29,19.70
2016,08,15,00,30,19.70
2016,08,15,00,31,19.70
2016,08,15,00,32,19.70
2016,08,15,00,33,19.70
2016,08,15,00,34,19.70
2016,08,15,00,35,19.70
2016,08,15,00,36,19.70
2016,08,15,00,37,19.70
2016,08,15,00,38,19.70
2016,08,15,00,39,19.70
2016,08,15,00,40,19.80
2016,08,15,00,41,19.80
2016,08,15,00,42,19.80
2016,08,15,00,43,19.80
2016,08,15,00,44,19.80
2016,08,15,00,45,19.80
2016,08,15,00,46,19.80
2016,08,15,00,47,19.80
2016,08,15,00,48,19.80
2016,08,15,00,49,19.80
2016,08,15,00,50,19.80
2016,08,15,00,51,19.80
2016,08,15,00,52,19.80
2016,08,15,00,53,19.80
2016,08,15,00,54,19.80
2016,08,15,00,55,19.70
2016,08,15,00,56,19.70
2016,08,15,00,57,19.70
2016,08,15,00,58,19.70
2016,08,15,00,59,19.70
2016,08,15,01,00,19.70
2016,08,15,01,01,19.70
2016,08,15,01,02,19.70
2016,08,15,01,03,19.70
2016,08,15,01,04,19.70
2016,08,15,01,05,19.70
2016,08,15,01,06,19.70
2016,08,15,01,07,19.70
2016,08,15,01,08,19.70
2016,08,15,01,09,19.70
2016,08,15,01,10,19.70
2016,08,15,01,11,19.70
2016,08,15,01,12,19.70
2016,08,15,01,13,19.60
2016,08,15,01,14,19.60
2016,08,15,01,15,19.60
2016,08,15,01,16,19.60
2016,08,15,01,17,19.60
2016,08,15,01,18,19.50
2016,08,15,01,19,19.50
2016,08,15,01,20,19.50
2016,08,15,01,21,19.50
2016,08,15,01,22,19.50
2016,08,15,01,23,19.50
2016,08,15,01,24,19.50
2016,08,15,01,25,19.50
2016,08,15,01,26,19.50
2016,08,15,01,27,19.50
2016,08,15,01,28,19.50
2016,08,15,01,29,19.50
2016,08,15,01,30,19.50
2016,08,15,01,31,19.50
2016,08,15,01,32,19.50
2016,08,15,01,33,19.60
2016,08,15,01,34,19.60
2016,08,15,01,35,19.60
2016,08,15,01,36,19.60
2016,08,15,01,37,19.60
2016,08,15,01,38,19.60
2016,08,15,01,39,19.60
2016,08,15,01,40,19.60
2016,08,15,01,41,19.60
2016,08,15,01,42,19.60
2016,08,15,01,43,19.60
2016,08,15,01,44,19.60
2016,08,15,01,45,19.60
2016,08,15,01,46,19.60
2016,08,15,01,47,19.60
2016,08,15,01,48,19.70
2016,08,15,01,49,19.70
2016,08,15,01,50,19.70
2016,08,15,01,51,19.70
2016,08,15,01,52,19.70
2016,08,15,01,53,19.70
2016,08,15,01,54,19.70
2016,08,15,01,55,19.70
2016,08,15,01,56,19.70
2016,08,15,01,57,19.70
2016,08,15,01,58,19.60
2016,08,15,01,59,19.60
2016,08,15,02,00,19.60
2016,08,15,02,01,19.60
2016,08,15,02,02,19.60
2016,08,15,02,03,19.60
2016,08,15,02,04,19.60
2016,08,15,02,05,19.60
2016,08,15,02,06,19.60
2016,08,15,02,07,19.60
2016,08,15,02,08,19.60
2016,08,15,02,09,19.50
2016,08,15,02,10,19.50
2016,08,15,02,11,19.50
2016,08,15,02,12,19.50
2016,08,15,02,13,19.40
2016,08,15,02,14,19.40
2016,08,15,02,15,19.40
2016,08,15,02,16,19.40
2016,08,15,02,17,19.40
2016,08,15,02,18,19.40
2016,08,15,02,19,19.30
2016,08,15,02,20,19.30
2016,08,15,02,21,19.30
2016,08,15,02,22,19.30
2016,08,15,02,23,19.30
2016,08,15,02,24,19.30
2016,08,15,02,25,19.30
2016,08,15,02,26,19.30
2016,08,15,02,27,19.20
2016,08,15,02,28,19.20
2016,08,15,02,29,19.20
2016,08,15,02,30,19.20
2016,08,15,02,31,19.10
2016,08,15,02,32,19.10
2016,08,15,02,33,19.10
2016,08,15,02,34,19.10
2016,08,15,02,35,19.00
2016,08,15,02,36,19.00
2016,08,15,02,37,19.00
2016,08,15,02,38,19.00
2016,08,15,02,39,19.00
2016,08,15,02,40,18.90
2016,08,15,02,41,18.90
2016,08,15,02,42,18.90
2016,08,15,02,43,18.90
2016,08,15,02,44,18.90
2016,08,15,02,45,18.90
2016,08,15,02,46,18.90
2016,08,15,02,47,18.90
2016,08,15,02,48,18.90
2016,08,15,02,49,18.90
2016,08,15,02,50,18.80
2016,08,15,02,51,18.80
2016,08,15,02,52,18.80
2016,08,15,02,53,18.80
2016,08,15,02,54,18.80
2016,08,15,02,55,18.70
2016,08,15,02,56,18.70
2016,08,15,02,57,18.70
2016,08,15,02,58,18.70
2016,08,15,02,59,18.70
2016,08,15,03,00,18.70
2016,08,15,03,01,18.70
2016,08,15,03,02,18.70
2016,08,15,03,06,18.60
2016,08,15,03,07,18.60
2016,08,15,03,08,18.60
2016,08,15,03,09,18.60
2016,08,15,03,10,18.60
2016,08,15,03,11,18.60
2016,08,15,03,12,18.60
2016,08,15,03,13,18.60
2016,08,15,03,14,18.50
2016,08,15,03,15,18.50
2016,08,15,03,16,18.50
2016,08,15,03,17,18.50
2016,08,15,03,18,18.50
2016,08,15,03,19,18.50
2016,08,15,03,20,18.50
2016,08,15,03,21,18.40
2016,08,15,03,22,18.40
2016,08,15,03,23,18.40
2016,08,15,03,24,18.40
2016,08,15,03,25,18.40
2016,08,15,03,26,18.40
2016,08,15,03,27,18.40
2016,08,15,03,28,18.40
2016,08,15,03,29,18.40
2016,08,15,03,30,18.40
2016,08,15,03,31,18.40
2016,08,15,03,32,18.40
2016,08,15,03,33,18.40
2016,08,15,03,34,18.40
2016,08,15,03,35,18.40
2016,08,15,03,36,18.40
2016,08,15,03,37,18.40
2016,08,15,03,38,18.40
2016,08,15,03,39,18.40
2016,08,15,03,40,18.40
2016,08,15,03,41,18.40
2016,08,15,03,42,18.40
2016,08,15,03,43,18.40
2016,08,15,03,44,18.40
2016,08,15,03,45,18.40
2016,08,15,03,46,18.40
2016,08,15,03,47,18.40
2016,08,15,03,48,18.40
2016,08,15,03,49,18.40
2016,08,15,03,50,18.40
2016,08,15,03,51,18.50
2016,08,15,03,52,18.50
2016,08,15,03,53,18.40
2016,08,15,03,54,18.40
2016,08,15,03,55,18.40
2016,08,15,03,56,18.40
2016,08,15,03,57,18.40
2016,08,15,03,58,18.40
2016,08,15,03,59,18.40
2016,08,15,04,00,18.40
2016,08,15,04,01,18.40
2016,08,15,04,02,18.40
2016,08,15,04,03,18.40
2016,08,15,04,04,18.40
2016,08,15,04,05,18.30
2016,08,15,04,06,18.40
2016,08,15,04,07,18.30
2016,08,15,04,08,18.30
2016,08,15,04,09,18.40
2016,08,15,04,10,18.30
2016,08,15,04,11,18.40
2016,08,15,04,12,18.30
2016,08,15,04,13,18.30
2016,08,15,04,14,18.30
2016,08,15,04,15,18.30
2016,08,15,04,16,18.30
2016,08,15,04,17,18.30
2016,08,15,04,18,18.30
2016,08,15,04,19,18.30
2016,08,15,04,20,18.20
2016,08,15,04,21,18.20
2016,08,15,04,22,18.20
2016,08,15,04,23,18.10
2016,08,15,04,24,18.10
2016,08,15,04,25,18.00
2016,08,15,04,26,17.90
2016,08,15,04,27,17.90
2016,08,15,04,28,17.80
2016,08,15,04,29,17.80
2016,08,15,04,30,17.70
2016,08,15,04,31,17.70
2016,08,15,04,32,17.70
2016,08,15,04,33,17.70
2016,08,15,04,34,17.70
2016,08,15,04,35,17.70
2016,08,15,04,36,17.70
2016,08,15,04,37,17.70
2016,08,15,04,38,17.70
2016,08,15,04,39,17.70
2016,08,15,04,40,17.70
2016,08,15,04,41,17.70
2016,08,15,04,42,17.70
2016,08,15,04,43,17.70
2016,08,15,04,44,17.70
2016,08,15,04,45,17.70
2016,08,15,04,46,17.70
2016,08,15,04,47,17.70
2016,08,15,04,48,17.70
2016,08,15,04,49,17.70
2016,08,15,04,50,17.70
2016,08,15,04,51,17.70
2016,08,15,04,52,17.70
2016,08,15,04,53,17.70
2016,08,15,04,54,17.70
2016,08,15,04,55,17.70
2016,08,15,04,56,17.70
2016,08,15,04,57,17.70
2016,08,15,04,58,17.70
2016,08,15,04,59,17.70
2016,08,15,05,00,17.70
2016,08,15,05,01,17.70
2016,08,15,05,02,17.70
2016,08,15,05,03,17.70
2016,08,15,05,04,17.70
2016,08,15,05,05,17.70
2016,08,15,05,06,17.70
2016,08,15,05,07,17.70
2016,08,15,05,08,17.70
2016,08,15,05,09,17.70
2016,08,15,05,10,17.70
2016,08,15,05,11,17.70
2016,08,15,05,12,17.70
2016,08,15,05,13,17.70
2016,08,15,05,14,17.70
2016,08,15,05,15,17.70
2016,08,15,05,16,17.70
2016,08,15,05,17,17.70
2016,08,15,05,18,17.70
2016,08,15,05,19,17.60
2016,08,15,05,20,17.60
2016,08,15,05,21,17.60
2016,08,15,05,22,17.60
2016,08,15,05,23,17.60
2016,08,15,05,24,17.60
2016,08,15,05,25,17.60
2016,08,15,05,26,17.60
2016,08,15,05,27,17.60
2016,08,15,05,28,17.60
2016,08,15,05,29,17.60
2016,08,15,05,30,17.60
2016,08,15,05,31,17.60
2016,08,15,05,32,17.60
2016,08,15,05,33,17.60
2016,08,15,05,34,17.60
2016,08,15,05,35,17.60
2016,08,15,05,36,17.60
2016,08,15,05,37,17.60
2016,08,15,05,38,17.60
2016,08,15,05,39,17.60
2016,08,15,05,40,17.60
2016,08,15,05,41,17.60
2016,08,15,05,42,17.60
2016,08,15,05,43,17.60
2016,08,15,05,44,17.60
2016,08,15,05,45,17.60
2016,08,15,05,46,17.60
2016,08,15,05,47,17.60
2016,08,15,05,48,17.60
2016,08,15,05,49,17.60
2016,08,15,05,50,17.60
2016,08,15,05,51,17.60
2016,08,15,05,52,17.60
2016,08,15,05,53,17.60
2016,08,15,05,54,17.50
2016,08,15,05,55,17.50
2016,08,15,05,56,17.50
2016,08,15,05,57,17.50
2016,08,15,05,58,17.50
2016,08,15,05,59,17.40
2016,08,15,06,00,17.40
2016,08,15,06,01,17.40
2016,08,15,06,02,17.40
2016,08,15,06,03,17.40
2016,08,15,06,04,17.30
2016,08,15,06,05,17.30
2016,08,15,06,06,17.30
2016,08,15,06,07,17.30
2016,08,15,06,08,17.30
2016,08,15,06,09,17.20
2016,08,15,06,10,17.20
2016,08,15,06,11,17.20
2016,08,15,06,12,17.20
2016,08,15,06,13,17.20
2016,08,15,06,14,17.20
2016,08,15,06,15,17.20
2016,08,15,06,16,17.20
2016,08,15,06,17,17.20
2016,08,15,06,18,17.20
2016,08,15,06,19,17.20
2016,08,15,06,20,17.20
2016,08,15,06,21,17.20
2016,08,15,06,22,17.10
2016,08,15,06,23,17.10
2016,08,15,06,24,17.10
2016,08,15,06,25,17.10
2016,08,15,06,26,17.10
2016,08,15,06,27,17.10
2016,08,15,06,28,17.10
2016,08,15,06,29,17.10
2016,08,15,06,30,17.10
2016,08,15,06,31,17.10
2016,08,15,06,32,17.10
2016,08,15,06,33,17.10
2016,08,15,06,34,17.10
2016,08,15,06,35,17.10
2016,08,15,06,36,17.10
2016,08,15,06,37,17.10
2016,08,15,06,38,17.10
2016,08,15,06,39,17.10
2016,08,15,06,40,17.10
2016,08,15,06,41,17.10
2016,08,15,06,42,17.10
2016,08,15,06,43,17.10
2016,08,15,06,44,17.20
2016,08,15,06,45,17.20
2016,08,15,06,46,17.20
2016,08,15,06,47,17.20
2016,08,15,06,48,17.20
2016,08,15,06,49,17.20
2016,08,15,06,50,17.20
2016,08,15,06,51,17.20
2016,08,15,06,52,17.20
2016,08,15,06,53,17.20
2016,08,15,06,54,17.20
2016,08,15,06,55,17.20
2016,08,15,06,56,17.20
2016,08,15,06,57,17.20
2016,08,15,06,58,17.20
2016,08,15,06,59,17.20
2016,08,15,07,00,17.20
2016,08,15,07,01,17.20
2016,08,15,07,02,17.20
2016,08,15,07,03,17.20
2016,08,15,07,04,17.20
2016,08,15,07,05,17.20
2016,08,15,07,06,17.20
2016,08,15,07,07,17.20
2016,08,15,07,08,17.20
2016,08,15,07,09,17.20
2016,08,15,07,10,17.20
2016,08,15,07,11,17.30
2016,08,15,07,12,17.30
2016,08,15,07,13,17.30
2016,08,15,07,14,17.30
2016,08,15,07,15,17.30
2016,08,15,07,16,17.40
2016,08,15,07,17,17.40
2016,08,15,07,18,17.40
2016,08,15,07,19,17.40
2016,08,15,07,20,17.50
2016,08,15,07,21,17.50
2016,08,15,07,22,17.60
2016,08,15,07,23,17.60
2016,08,15,07,24,17.60
2016,08,15,07,25,17.60
2016,08,15,07,26,17.60
2016,08,15,07,27,17.70
2016,08,15,07,28,17.70
2016,08,15,07,29,17.70
2016,08,15,07,30,17.80
2016,08,15,07,31,17.80
2016,08,15,07,32,17.80
2016,08,15,07,33,17.90
2016,08,15,07,34,17.90
2016,08,15,07,35,17.90
2016,08,15,07,36,18.00
2016,08,15,07,37,18.00
2016,08,15,07,38,18.10
2016,08,15,07,39,18.10
2016,08,15,07,40,18.20
2016,08,15,07,41,18.20
2016,08,15,07,42,18.30
2016,08,15,07,43,18.30
2016,08,15,07,44,18.30
2016,08,15,07,45,18.40
2016,08,15,07,46,18.40
2016,08,15,07,47,18.40
2016,08,15,07,48,18.40
2016,08,15,07,49,18.50
2016,08,15,07,50,18.50
2016,08,15,07,51,18.60
2016,08,15,07,52,18.60
2016,08,15,07,53,18.60
2016,08,15,07,54,18.70
2016,08,15,07,55,18.70
2016,08,15,07,56,18.70
2016,08,15,07,57,18.80
2016,08,15,07,58,18.80
2016,08,15,07,59,18.90
2016,08,15,08,00,18.90
2016,08,15,08,01,18.90
2016,08,15,08,02,19.00
2016,08,15,08,03,19.00
2016,08,15,08,04,19.10
2016,08,15,08,05,19.10
2016,08,15,08,06,19.10
2016,08,15,08,07,19.10
2016,08,15,08,08,19.20
2016,08,15,08,09,19.20
2016,08,15,08,10,19.20
2016,08,15,08,11,19.20
2016,08,15,08,12,19.20
2016,08,15,08,13,19.30
2016,08,15,08,14,19.30
2016,08,15,08,15,19.30
2016,08,15,08,16,19.30
2016,08,15,08,17,19.40
2016,08,15,08,18,19.40
2016,08,15,08,19,19.50
2016,08,15,08,20,19.50
2016,08,15,08,21,19.60
2016,08,15,08,22,19.60
2016,08,15,08,23,19.70
2016,08,15,08,24,19.70
2016,08,15,08,25,19.70
2016,08,15,08,26,19.80
2016,08,15,08,27,19.80
2016,08,15,08,28,19.80
2016,08,15,08,29,19.90
2016,08,15,08,30,19.90
2016,08,15,08,31,20.00
2016,08,15,08,32,20.10
2016,08,15,08,33,20.10
2016,08,15,08,34,20.20
2016,08,15,08,35,20.30
2016,08,15,08,36,20.30
2016,08,15,08,37,20.40
2016,08,15,08,38,20.40
2016,08,15,08,39,20.40
2016,08,15,08,40,20.50
2016,08,15,08,41,20.50
2016,08,15,08,42,20.60
2016,08,15,08,43,20.60
2016,08,15,08,44,20.60
2016,08,15,08,45,20.70
2016,08,15,08,46,20.70
2016,08,15,08,47,20.70
2016,08,15,08,48,20.80
2016,08,15,08,49,20.80
2016,08,15,08,50,20.80
2016,08,15,08,51,20.90
2016,08,15,08,52,21.00
2016,08,15,08,53,21.00
2016,08,15,08,54,21.10
2016,08,15,08,55,21.10
2016,08,15,08,56,21.20
2016,08,15,08,57,21.30
2016,08,15,08,58,21.30
2016,08,15,08,59,21.30
2016,08,15,09,00,21.40
2016,08,15,09,01,21.40
2016,08,15,09,02,21.40
2016,08,15,09,03,21.50
2016,08,15,09,04,21.50
2016,08,15,09,05,21.60
2016,08,15,09,06,21.60
2016,08,15,09,07,21.70
2016,08,15,09,08,21.70
2016,08,15,09,09,21.80
2016,08,15,09,10,21.80
2016,08,15,09,11,21.80
2016,08,15,09,12,21.80
2016,08,15,09,13,21.90
2016,08,15,09,14,21.90
2016,08,15,09,15,21.90
2016,08,15,09,16,22.00
2016,08,15,09,17,22.00
2016,08,15,09,18,22.10
2016,08,15,09,19,22.00
2016,08,15,09,20,22.10
2016,08,15,09,21,22.10
2016,08,15,09,22,22.20
2016,08,15,09,23,22.20
2016,08,15,09,24,22.20
2016,08,15,09,25,22.20
2016,08,15,09,26,22.20
2016,08,15,09,27,22.20
2016,08,15,09,28,22.30
2016,08,15,09,29,22.30
2016,08,15,09,30,22.40
2016,08,15,09,31,22.40
2016,08,15,09,32,22.40
2016,08,15,09,33,22.40
2016,08,15,09,34,22.40
2016,08,15,09,35,22.50
2016,08,15,09,36,22.60
2016,08,15,09,37,22.60
2016,08,15,09,38,22.70
2016,08,15,09,39,22.70
2016,08,15,09,40,22.80
2016,08,15,09,41,22.80
2016,08,15,09,42,22.80
2016,08,15,09,43,22.90
2016,08,15,09,44,22.90
2016,08,15,09,45,22.90
2016,08,15,09,46,22.90
2016,08,15,09,47,22.90
2016,08,15,09,48,23.00
2016,08,15,09,49,23.00
2016,08,15,09,50,23.10
2016,08,15,09,51,23.10
2016,08,15,09,52,23.10
2016,08,15,09,53,23.10
2016,08,15,09,54,23.20
2016,08,15,09,55,23.10
2016,08,15,09,56,23.20
2016,08,15,09,57,23.20
2016,08,15,09,58,23.20
2016,08,15,09,59,23.10
2016,08,15,10,00,23.00
2016,08,15,10,01,22.90
2016,08,15,10,02,22.90
2016,08,15,10,03,22.90
2016,08,15,10,04,22.90
2016,08,15,10,05,22.80
2016,08,15,10,06,22.80
2016,08,15,10,07,22.80
2016,08,15,10,08,22.80
2016,08,15,10,09,22.80
2016,08,15,10,10,22.80
2016,08,15,10,11,22.80
2016,08,15,10,12,22.80
2016,08,15,10,13,22.80
2016,08,15,10,14,22.80
2016,08,15,10,15,22.80
2016,08,15,10,16,22.90
2016,08,15,10,17,22.90
2016,08,15,10,18,22.90
2016,08,15,10,19,22.90
2016,08,15,10,20,22.90
2016,08,15,10,21,22.90
2016,08,15,10,22,23.00
2016,08,15,10,23,23.00
2016,08,15,10,24,23.00
2016,08,15,10,25,23.00
2016,08,15,10,26,23.00
2016,08,15,10,27,23.10
2016,08,15,10,28,23.10
2016,08,15,10,29,23.20
2016,08,15,10,30,23.20
2016,08,15,10,31,23.20
2016,08,15,10,32,23.20
2016,08,15,10,33,23.20
2016,08,15,10,34,23.20
2016,08,15,10,35,23.20
2016,08,15,10,36,23.20
2016,08,15,10,37,23.30
2016,08,15,10,38,23.30
2016,08,15,10,39,23.40
2016,08,15,10,40,23.40
2016,08,15,10,41,23.50
2016,08,15,10,42,23.60
2016,08,15,10,43,23.50
2016,08,15,10,44,23.50
2016,08,15,10,45,23.60
2016,08,15,10,46,23.60
2016,08,15,10,47,23.70
2016,08,15,10,48,23.70
2016,08,15,10,49,23.80
2016,08,15,10,50,23.80
2016,08,15,10,51,23.80
2016,08,15,10,52,23.80
2016,08,15,10,53,23.80
2016,08,15,10,54,23.80
2016,08,15,10,55,23.80
2016,08,15,10,56,23.80
2016,08,15,10,57,23.90
2016,08,15,10,58,24.00
2016,08,15,10,59,24.00
2016,08,15,11,00,24.10
2016,08,15,11,01,24.10
2016,08,15,11,02,24.20
2016,08,15,11,03,24.20
2016,08,15,11,04,24.20
2016,08,15,11,05,24.30
2016,08,15,11,06,24.30
2016,08,15,11,07,24.30
2016,08,15,11,08,24.30
2016,08,15,11,09,24.30
2016,08,15,11,10,24.30
2016,08,15,11,11,24.30
2016,08,15,11,12,24.40
2016,08,15,11,13,24.50
2016,08,15,11,14,24.60
2016,08,15,11,15,24.70
2016,08,15,11,16,24.70
2016,08,15,11,17,24.80
2016,08,15,11,18,24.90
2016,08,15,11,19,24.90
2016,08,15,11,20,25.00
2016,08,15,11,21,25.10
2016,08,15,11,22,25.10
2016,08,15,11,23,25.10
2016,08,15,11,24,25.10
2016,08,15,11,25,25.10
2016,08,15,11,26,25.10
2016,08,15,11,27,25.00
2016,08,15,11,28,25.00
2016,08,15,11,29,25.00
2016,08,15,11,30,25.00
2016,08,15,11,31,24.90
2016,08,15,11,32,24.90
2016,08,15,11,33,24.90
2016,08,15,11,34,24.90
2016,08,15,11,35,24.80
2016,08,15,11,36,24.80
2016,08,15,11,37,24.80
2016,08,15,11,38,24.90
2016,08,15,11,39,25.00
2016,08,15,11,40,25.00
2016,08,15,11,41,25.10
2016,08,15,11,42,25.20
2016,08,15,11,43,25.20
2016,08,15,11,44,25.20
2016,08,15,11,45,25.20
2016,08,15,11,46,25.20
2016,08,15,11,47,25.20
2016,08,15,11,48,25.10
2016,08,15,11,49,25.10
2016,08,15,11,50,25.10
2016,08,15,11,51,25.10
2016,08,15,11,52,25.10
2016,08,15,11,53,25.20
2016,08,15,11,54,25.20
2016,08,15,11,55,25.30
2016,08,15,11,56,25.30
2016,08,15,11,57,25.40
2016,08,15,11,58,25.30
2016,08,15,11,59,25.30
2016,08,15,12,00,25.30
2016,08,15,12,01,25.30
2016,08,15,12,02,25.30
2016,08,15,12,03,25.30
2016,08,15,12,04,25.20
2016,08,15,12,05,25.30
2016,08,15,12,06,25.30
2016,08,15,12,07,25.30
2016,08,15,12,08,25.30
2016,08,15,12,09,25.40
2016,08,15,12,10,25.40
2016,08,15,12,11,25.40
2016,08,15,12,12,25.40
2016,08,15,12,13,25.40
2016,08,15,12,14,25.40
2016,08,15,12,15,25.50
2016,08,15,12,16,25.50
2016,08,15,12,17,25.60
2016,08,15,12,18,25.70
2016,08,15,12,19,25.80
2016,08,15,12,20,25.80
2016,08,15,12,21,25.80
2016,08,15,12,22,25.70
2016,08,15,12,23,25.70
2016,08,15,12,24,25.70
2016,08,15,12,25,25.70
2016,08,15,12,26,25.70
2016,08,15,12,27,25.80
2016,08,15,12,28,25.90
2016,08,15,12,29,25.90
2016,08,15,12,30,25.90
2016,08,15,12,31,26.00
2016,08,15,12,32,26.10
2016,08,15,12,33,26.20
2016,08,15,12,34,26.30
2016,08,15,12,35,26.30
2016,08,15,12,36,26.40
2016,08,15,12,37,26.40
2016,08,15,12,38,26.40
2016,08,15,12,39,26.50
2016,08,15,12,40,26.50
2016,08,15,12,41,26.50
2016,08,15,12,42,26.60
2016,08,15,12,43,26.50
2016,08,15,12,44,26.40
2016,08,15,12,45,26.40
2016,08,15,12,46,26.40
2016,08,15,12,47,26.30
2016,08,15,12,48,26.20
2016,08,15,12,49,26.20
2016,08,15,12,50,26.20
2016,08,15,12,51,26.30
2016,08,15,12,52,26.30
2016,08,15,12,53,26.30
2016,08,15,12,54,26.30
2016,08,15,12,55,26.30
2016,08,15,12,56,26.30
2016,08,15,12,57,26.30
2016,08,15,12,58,26.30
2016,08,15,12,59,26.30
2016,08,15,13,00,26.30
2016,08,15,13,01,26.30
2016,08,15,13,02,26.20
2016,08,15,13,03,26.30
2016,08,15,13,04,26.30
2016,08,15,13,05,26.40
2016,08,15,13,06,26.50
2016,08,15,13,07,26.50
2016,08,15,13,08,26.60
2016,08,15,13,09,26.60
2016,08,15,13,10,26.60
2016,08,15,13,11,26.50
2016,08,15,13,12,26.40
2016,08,15,13,13,26.40
2016,08,15,13,14,26.50
2016,08,15,13,15,26.60
2016,08,15,13,16,26.70
2016,08,15,13,17,26.70
2016,08,15,13,18,26.80
2016,08,15,13,19,26.80
2016,08,15,13,20,26.90
2016,08,15,13,21,26.90
2016,08,15,13,22,26.90
2016,08,15,13,23,26.90
2016,08,15,13,24,27.00
2016,08,15,13,25,27.10
2016,08,15,13,26,27.10
2016,08,15,13,27,27.10
2016,08,15,13,28,27.00
2016,08,15,13,29,27.00
2016,08,15,13,30,27.10
2016,08,15,13,31,27.10
2016,08,15,13,32,27.20
2016,08,15,13,33,27.20
2016,08,15,13,34,27.30
2016,08,15,13,35,27.30
2016,08,15,13,36,27.40
2016,08,15,13,37,27.30
2016,08,15,13,38,27.30
2016,08,15,13,39,27.30
2016,08,15,13,40,27.30
2016,08,15,13,41,27.30
2016,08,15,13,42,27.30
2016,08,15,13,43,27.20
2016,08,15,13,44,27.20
2016,08,15,13,45,27.10
2016,08,15,13,46,27.20
2016,08,15,13,47,27.20
2016,08,15,13,48,27.20
2016,08,15,13,49,27.20
2016,08,15,13,50,27.20
2016,08,15,13,51,27.30
2016,08,15,13,52,27.30
2016,08,15,13,53,27.30
2016,08,15,13,54,27.30
2016,08,15,13,55,27.40
2016,08,15,13,56,27.50
2016,08,15,13,57,27.60
2016,08,15,13,58,27.70
2016,08,15,13,59,27.70
2016,08,15,14,00,27.80
2016,08,15,14,01,27.90
2016,08,15,14,02,28.00
2016,08,15,14,03,28.20
2016,08,15,14,04,28.30
2016,08,15,14,05,28.40
2016,08,15,14,06,28.40
2016,08,15,14,07,28.40
2016,08,15,14,08,28.40
2016,08,15,14,09,28.40
2016,08,15,14,10,28.50
2016,08,15,14,11,28.50
2016,08,15,14,12,28.50
2016,08,15,14,13,28.40
2016,08,15,14,14,28.40
2016,08,15,14,15,28.30
2016,08,15,14,16,28.30
2016,08,15,14,17,28.10
2016,08,15,14,18,27.90
2016,08,15,14,19,27.70
2016,08,15,14,20,27.60
2016,08,15,14,21,27.40
2016,08,15,14,22,27.40
2016,08,15,14,23,27.40
2016,08,15,14,24,27.50
2016,08,15,14,25,27.50
2016,08,15,14,26,27.60
2016,08,15,14,27,27.60
2016,08,15,14,28,27.70
2016,08,15,14,29,27.70
2016,08,15,14,30,27.70
2016,08,15,14,31,27.80
2016,08,15,14,32,27.90
2016,08,15,14,33,28.10
2016,08,15,14,34,28.60
2016,08,15,14,35,28.90
2016,08,15,14,36,29.10
2016,08,15,14,37,29.20
2016,08,15,14,38,29.10
2016,08,15,14,39,28.80
2016,08,15,14,40,28.60
2016,08,15,14,41,28.50
2016,08,15,14,42,28.40
2016,08,15,14,43,28.20
2016,08,15,14,44,28.20
2016,08,15,14,45,28.10
2016,08,15,14,46,28.00
2016,08,15,14,47,28.00
2016,08,15,14,48,28.10
2016,08,15,14,49,28.10
2016,08,15,14,50,28.10
2016,08,15,14,51,28.10
2016,08,15,14,52,28.00
2016,08,15,14,53,28.00
2016,08,15,14,54,27.90
2016,08,15,14,55,27.90
2016,08,15,14,56,27.80
2016,08,15,14,57,27.80
2016,08,15,14,58,27.70
2016,08,15,14,59,27.50
2016,08,15,15,00,27.40
2016,08,15,15,01,27.40
2016,08,15,15,02,27.40
2016,08,15,15,03,27.50
2016,08,15,15,04,27.50
2016,08,15,15,05,27.50
2016,08,15,15,06,27.50
2016,08,15,15,07,27.60
2016,08,15,15,08,27.80
2016,08,15,15,09,27.90
2016,08,15,15,10,27.90
2016,08,15,15,11,27.90
2016,08,15,15,12,27.90
2016,08,15,15,13,27.90
2016,08,15,15,14,27.90
2016,08,15,15,15,27.90
2016,08,15,15,16,27.90
2016,08,15,15,17,28.00
2016,08,15,15,18,28.10
2016,08,15,15,19,28.10
2016,08,15,15,20,28.00
2016,08,15,15,21,28.00
2016,08,15,15,22,28.00
2016,08,15,15,23,28.00
2016,08,15,15,24,28.00
2016,08,15,15,25,28.10
2016,08,15,15,26,28.20
2016,08,15,15,27,28.20
2016,08,15,15,28,28.20
2016,08,15,15,29,28.20
2016,08,15,15,30,28.30
2016,08,15,15,31,28.20
2016,08,15,15,32,28.10
2016,08,15,15,33,28.00
2016,08,15,15,34,27.90
2016,08,15,15,35,28.00
2016,08,15,15,36,28.10
2016,08,15,15,37,28.20
2016,08,15,15,38,28.40
2016,08,15,15,39,28.50
2016,08,15,15,40,28.60
2016,08,15,15,41,28.80
2016,08,15,15,42,28.90
2016,08,15,15,43,29.10
2016,08,15,15,44,29.20
2016,08,15,15,45,29.20
2016,08,15,15,46,29.20
2016,08,15,15,47,29.10
2016,08,15,15,48,29.00
2016,08,15,15,49,29.00
2016,08,15,15,50,28.90
2016,08,15,15,51,28.70
2016,08,15,15,52,28.60
2016,08,15,15,53,28.50
2016,08,15,15,54,28.40
2016,08,15,15,55,28.40
2016,08,15,15,56,28.50
2016,08,15,15,57,28.50
2016,08,15,15,58,28.60
2016,08,15,15,59,28.50
2016,08,15,16,00,28.40
2016,08,15,16,01,28.40
2016,08,15,16,02,28.40
2016,08,15,16,03,28.40
2016,08,15,16,04,28.40
2016,08,15,16,05,28.50
2016,08,15,16,06,28.60
2016,08,15,16,07,28.60
2016,08,15,16,08,28.60
2016,08,15,16,09,28.60
2016,08,15,16,10,28.60
2016,08,15,16,11,28.50
2016,08,15,16,12,28.40
2016,08,15,16,13,28.40
2016,08,15,16,14,28.40
2016,08,15,16,15,28.40
2016,08,15,16,16,28.40
2016,08,15,16,17,28.50
2016,08,15,16,18,28.60
2016,08,15,16,19,28.60
2016,08,15,16,20,28.60
2016,08,15,16,21,28.60
2016,08,15,16,22,28.60
2016,08,15,16,23,28.70
2016,08,15,16,24,28.70
2016,08,15,16,25,28.80
2016,08,15,16,26,28.80
2016,08,15,16,27,28.80
2016,08,15,16,28,28.80
2016,08,15,16,29,28.80
2016,08,15,16,30,28.80
2016,08,15,16,31,28.80
2016,08,15,16,32,28.90
2016,08,15,16,33,29.00
2016,08,15,16,34,29.00
2016,08,15,16,35,29.00
2016,08,15,16,36,28.90
2016,08,15,16,37,28.90
2016,08,15,16,38,28.80
2016,08,15,16,39,28.80
2016,08,15,16,40,28.80
2016,08,15,16,41,28.90
2016,08,15,16,42,28.90
2016,08,15,16,43,28.90
2016,08,15,16,44,28.90
2016,08,15,16,45,28.90
2016,08,15,16,46,28.80
2016,08,15,16,47,28.80
2016,08,15,16,48,28.70
2016,08,15,16,49,28.70
2016,08,15,16,50,28.70
2016,08,15,16,51,28.60
2016,08,15,16,52,28.60
2016,08,15,16,53,28.60
2016,08,15,16,54,28.60
2016,08,15,16,55,28.70
2016,08,15,16,56,28.70
2016,08,15,16,57,28.70
2016,08,15,16,58,28.60
2016,08,15,16,59,28.60
2016,08,15,17,00,28.60
2016,08,15,17,01,28.50
2016,08,15,17,02,28.40
2016,08,15,17,03,28.40
2016,08,15,17,04,28.30
2016,08,15,17,05,28.30
2016,08,15,17,06,28.20
2016,08,15,17,07,28.20
2016,08,15,17,08,28.20
2016,08,15,17,09,28.30
2016,08,15,17,10,28.30
2016,08,15,17,11,28.40
2016,08,15,17,12,28.40
2016,08,15,17,13,28.50
2016,08,15,17,14,28.50
2016,08,15,17,15,28.50
2016,08,15,17,16,28.50
2016,08,15,17,17,28.40
2016,08,15,17,18,28.40
2016,08,15,17,19,28.40
2016,08,15,17,20,28.40
2016,08,15,17,21,28.30
2016,08,15,17,22,28.30